Simultaneous Nadir Overpasses (SNOs) Predictions

Prediction of SNOs between NOAA-19 and NPP Satellite Orbit:

Table of predicted SNOs for the next 14.0 days since TLE Epoch: 7/7/2013
Index Date (NOAA-19) Time (NOAA-19) Lat,Lon (NOAA-19) SZA (NOAA-19 ) Date (NPP) Time (NPP) Lat,Lon (NPP) SZA (NPP ) Distance(km) Time Diff (sec)
1 07/09/2013 05:12:40 80.92, 49.34 62.49 07/09/2013 05:13:50 80.93, 49.17 62.48 3.05 70
2 07/09/2013 06:03:48 -80.93,-143.63 117.48 07/09/2013 06:04:35 -80.93,-143.51 117.52 2.00 47
3 07/09/2013 06:54:44 80.92, 24.00 62.48 07/09/2013 06:55:19 80.91, 24.11 62.44 2.01 35
4 07/09/2013 07:45:50 -80.90,-168.24 117.61 07/09/2013 07:46:03 -80.90,-168.21 117.62 0.51 13
5 07/09/2013 08:36:47 80.90, -0.98 62.40 07/09/2013 08:36:48 80.90, -0.95 62.40 0.50 1
6 07/09/2013
